Location: Newark
(48.0000°N, 67.0000°E)
Time: 23:22:48
(UTC+00:00)

N. Korean satellite - Pass Details

Date: 29 January 2020
Orbit: 456 x 505 km, 97.2° (Epoch: 19 February)

Event Time Altitude Azimuth Distance (km) Brightness Sun altitude
Rises 13:02:55 0° 190° (S) 2,461 10.6 -6.5°
Reaches altitude 10° 13:05:08 10° 202° (SSW) 1,595 9.8 -6.8°
Maximum altitude 13:08:08 29° 264° (W) 883 8.9 -7.3°
Drops below altitude 10° 13:11:12 10° 326° (NW) 1,619 9.4 -7.8°
Sets 13:13:27 0° 338° (NNW) 2,506 10.2 -8.2°
